When you browse on this site, cookies collect data to enhance your experience and personalize the content and advertising you see.
Visit our Privacy Policy to learn more. By continuing to use the site, you agree to this use of cookies and data.
  • en Suisse
  • Liste des pays
  • À 7 jours
  • Température de l'eau
  • Carte météo
  • Widgets météo
  • user-avatar
    Se connecter

    Météo par heure à Mijas

    Ce jour, 19 Janvier, Dimanche

    Heure Température Précipitation Vent Pression Humidité
    00:00 +10°C° 0 mm 6 m/s 721 mmHg 92%
    01:00 +9°C° 0.1 mm 5 m/s 720 mmHg 90%
    02:00 +8°C° 0.1 mm 5 m/s 719 mmHg 89%
    03:00 +8°C° 0.1 mm 5 m/s 719 mmHg 87%
    04:00 +7°C° 0 mm 5 m/s 718 mmHg 85%
    05:00 +5°C° 0 mm 6 m/s 718 mmHg 84%
    06:00 +5°C° 0 mm 7 m/s 718 mmHg 82%
    07:00 +5°C° 0 mm 7 m/s 718 mmHg 81%
    08:00 +5°C° 0 mm 7 m/s 718 mmHg 79%
    09:00 +5°C° 0 mm 6 m/s 718 mmHg 78%
    10:00 +7°C° 0 mm 6 m/s 718 mmHg 73%
    11:00 +8°C° 0 mm 6 m/s 718 mmHg 68%
    12:00 +9°C° 0 mm 6 m/s 717 mmHg 63%
    13:00 +9°C° 0 mm 7 m/s 717 mmHg 62%
    14:00 +9°C° 0 mm 7 m/s 716 mmHg 60%
    15:00 +9°C° 0 mm 8 m/s 716 mmHg 59%
    16:00 +7°C° 0 mm 8 m/s 716 mmHg 61%
    17:00 +6°C° 0 mm 8 m/s 715 mmHg 63%
    18:00 +5°C° 0 mm 7 m/s 715 mmHg 65%
    19:00 +5°C° 0 mm 6 m/s 715 mmHg 68%
    20:00 +5°C° 0 mm 5 m/s 715 mmHg 72%
    21:00 +5°C° 0 mm 4 m/s 715 mmHg 76%
    22:00 +5°C° 0 mm 4 m/s 716 mmHg 75%
    23:00 +5°C° 0 mm 3 m/s 716 mmHg 75%

    Demain, 20 Janvier, Lundi

    Heure Température Précipitation Vent Pression Humidité
    00:00 +5°C° 0 mm 3 m/s 716 mmHg 74%
    01:00 +4°C° 0.1 mm 4 m/s 715 mmHg 71%
    02:00 +4°C° 0.1 mm 4 m/s 715 mmHg 68%
    03:00 +2°C° 0.1 mm 5 m/s 714 mmHg 65%
    04:00 +2°C° 0 mm 5 m/s 714 mmHg 64%
    05:00 +2°C° 0 mm 6 m/s 713 mmHg 64%
    06:00 +2°C° 0 mm 6 m/s 713 mmHg 63%
    07:00 +2°C° 0 mm 6 m/s 713 mmHg 64%
    08:00 +2°C° 0 mm 5 m/s 713 mmHg 65%
    09:00 +3°C° 0 mm 5 m/s 712 mmHg 65%
    10:00 +5°C° 0 mm 5 m/s 712 mmHg 61%
    11:00 +6°C° 0 mm 4 m/s 712 mmHg 58%
    12:00 +8°C° 0 mm 4 m/s 712 mmHg 54%
    13:00 +8°C° 0 mm 4 m/s 712 mmHg 54%
    14:00 +10°C° 0 mm 4 m/s 711 mmHg 54%
    15:00 +10°C° 0 mm 4 m/s 711 mmHg 53%
    16:00 +8°C° 0.1 mm 5 m/s 711 mmHg 59%
    17:00 +7°C° 0.1 mm 6 m/s 711 mmHg 65%
    18:00 +5°C° 0.1 mm 7 m/s 711 mmHg 70%
    19:00 +5°C° 0.2 mm 7 m/s 712 mmHg 75%
    20:00 +5°C° 0.2 mm 8 m/s 712 mmHg 80%
    21:00 +5°C° 0.2 mm 8 m/s 713 mmHg 85%
    22:00 +4°C° 0.2 mm 6 m/s 713 mmHg 85%
    23:00 +5°C° 0.2 mm 4 m/s 713 mmHg 85%

    Après-demain, 21 Janvier, Mardi

    Heure Température Précipitation Vent Pression Humidité
    00:00 +5°C° 0.2 mm 3 m/s 713 mmHg 86%
    01:00 +5°C° 0.1 mm 2 m/s 712 mmHg 85%
    02:00 +5°C° 0.1 mm 2 m/s 712 mmHg 85%
    03:00 +6°C° 0.1 mm 1 m/s 712 mmHg 84%
    04:00 +5°C° 0.1 mm 2 m/s 712 mmHg 83%
    05:00 +5°C° 0.1 mm 2 m/s 712 mmHg 83%
    06:00 +5°C° 0.1 mm 2 m/s 712 mmHg 82%
    07:00 +5°C° 0 mm 2 m/s 712 mmHg 80%
    08:00 +6°C° 0 mm 2 m/s 712 mmHg 77%
    09:00 +6°C° 0 mm 2 m/s 712 mmHg 75%
    10:00 +8°C° 0 mm 2 m/s 712 mmHg 69%
    11:00 +9°C° 0 mm 2 m/s 712 mmHg 64%
    12:00 +10°C° 0 mm 2 m/s 712 mmHg 58%
    13:00 +10°C° 0.1 mm 3 m/s 712 mmHg 60%
    14:00 +10°C° 0.1 mm 3 m/s 711 mmHg 62%
    15:00 +10°C° 0.1 mm 3 m/s 711 mmHg 64%
    16:00 +9°C° 0.1 mm 3 m/s 711 mmHg 68%
    17:00 +8°C° 0.1 mm 2 m/s 711 mmHg 72%
    18:00 +7°C° 0.1 mm 2 m/s 711 mmHg 76%
    19:00 +7°C° 0.2 mm 2 m/s 711 mmHg 77%
    20:00 +7°C° 0.2 mm 2 m/s 711 mmHg 78%
    21:00 +6°C° 0.2 mm 2 m/s 711 mmHg 79%
    22:00 +6°C° 0.2 mm 2 m/s 711 mmHg 80%
    23:00 +6°C° 0.2 mm 2 m/s 712 mmHg 81%

    22 Janvier, Mercredi

    Heure Température Précipitation Vent Pression Humidité
    00:00 +7°C° 0.2 mm 2 m/s 712 mmHg 81%
    01:00 +6°C° 0.3 mm 2 m/s 712 mmHg 84%
    02:00 +6°C° 0.3 mm 2 m/s 712 mmHg 86%
    03:00 +6°C° 0.3 mm 2 m/s 712 mmHg 89%
    04:00 +6°C° 0.5 mm 2 m/s 712 mmHg 88%
    05:00 +6°C° 0.5 mm 2 m/s 712 mmHg 87%
    06:00 +5°C° 0.5 mm 3 m/s 712 mmHg 86%
    07:00 +7°C° 0.2 mm 3 m/s 713 mmHg 84%
    08:00 +7°C° 0.2 mm 3 m/s 713 mmHg 82%
    09:00 +7°C° 0.2 mm 4 m/s 714 mmHg 79%
    10:00 +7°C° 0.6 mm 5 m/s 714 mmHg 78%
    11:00 +8°C° 0.6 mm 5 m/s 714 mmHg 76%
    12:00 +9°C° 0.6 mm 6 m/s 714 mmHg 74%
    13:00 +8°C° 0.8 mm 6 m/s 714 mmHg 77%
    14:00 +8°C° 0.8 mm 6 m/s 714 mmHg 79%
    15:00 +8°C° 0.8 mm 5 m/s 714 mmHg 81%
    16:00 +7°C° 1 mm 5 m/s 714 mmHg 82%
    17:00 +7°C° 1 mm 5 m/s 714 mmHg 84%
    18:00 +7°C° 1 mm 4 m/s 714 mmHg 85%
    19:00 +7°C° 0.4 mm 5 m/s 714 mmHg 85%
    20:00 +7°C° 0.4 mm 5 m/s 715 mmHg 85%
    21:00 +7°C° 0.4 mm 5 m/s 715 mmHg 85%
    22:00 +7°C° 0.5 mm 5 m/s 715 mmHg 84%
    23:00 +7°C° 0.5 mm 5 m/s 715 mmHg 83%

    23 Janvier, Jeudi

    Heure Température Précipitation Vent Pression Humidité
    00:00 +7°C° 0.5 mm 6 m/s 715 mmHg 81%
    01:00 +7°C° 0.7 mm 6 m/s 715 mmHg 82%
    02:00 +7°C° 0.7 mm 6 m/s 715 mmHg 83%
    03:00 +7°C° 0.7 mm 6 m/s 714 mmHg 84%
    04:00 +7°C° 0.8 mm 6 m/s 714 mmHg 83%
    05:00 +7°C° 0.8 mm 6 m/s 714 mmHg 83%
    06:00 +7°C° 0.8 mm 6 m/s 714 mmHg 82%
    07:00 +7°C° 0.7 mm 6 m/s 714 mmHg 81%
    08:00 +8°C° 0.7 mm 6 m/s 714 mmHg 80%
    09:00 +8°C° 0.7 mm 6 m/s 715 mmHg 79%
    10:00 +9°C° 0.8 mm 6 m/s 715 mmHg 79%
    11:00 +9°C° 0.8 mm 6 m/s 715 mmHg 78%
    12:00 +9°C° 0.8 mm 6 m/s 715 mmHg 78%
    13:00 +9°C° 0.8 mm 5 m/s 715 mmHg 79%
    14:00 +8°C° 0.8 mm 4 m/s 715 mmHg 79%
    15:00 +9°C° 0.8 mm 3 m/s 715 mmHg 80%
    16:00 +9°C° 0.2 mm 3 m/s 715 mmHg 81%
    17:00 +8°C° 0.2 mm 3 m/s 715 mmHg 83%
    18:00 +7°C° 0.2 mm 4 m/s 715 mmHg 84%
    19:00 +7°C° 1.1 mm 4 m/s 716 mmHg 85%
    20:00 +7°C° 1.1 mm 4 m/s 716 mmHg 87%
    21:00 +7°C° 1.1 mm 5 m/s 716 mmHg 88%
    22:00 +7°C° 1.1 mm 5 m/s 716 mmHg 89%
    23:00 +7°C° 1.1 mm 5 m/s 716 mmHg 89%

    24 Janvier, Vendredi

    Heure Température Précipitation Vent Pression Humidité
    00:00 +7°C° 1.1 mm 6 m/s 717 mmHg 90%
    01:00 +7°C° 0.9 mm 6 m/s 716 mmHg 91%
    02:00 +7°C° 0.9 mm 5 m/s 716 mmHg 91%
    03:00 +7°C° 0.9 mm 5 m/s 716 mmHg 91%
    04:00 +7°C° 0.2 mm 4 m/s 716 mmHg 90%
    05:00 +7°C° 0.2 mm 4 m/s 716 mmHg 88%
    06:00 +8°C° 0.2 mm 3 m/s 717 mmHg 87%
    07:00 +8°C° 0 mm 3 m/s 717 mmHg 85%
    08:00 +8°C° 0 mm 3 m/s 717 mmHg 84%
    09:00 +8°C° 0 mm 2 m/s 717 mmHg 82%
    10:00 +9°C° 0 mm 2 m/s 718 mmHg 78%
    11:00 +10°C° 0 mm 2 m/s 718 mmHg 74%
    12:00 +12°C° 0 mm 2 m/s 718 mmHg 70%
    13:00 +12°C° 0 mm 2 m/s 717 mmHg 69%
    14:00 +12°C° 0 mm 2 m/s 717 mmHg 68%
    15:00 +13°C° 0 mm 2 m/s 717 mmHg 66%
    16:00 +12°C° 0 mm 2 m/s 717 mmHg 69%
    17:00 +11°C° 0 mm 1 m/s 717 mmHg 71%
    18:00 +11°C° 0 mm 1 m/s 717 mmHg 74%
    19:00 +10°C° 0 mm 1 m/s 717 mmHg 75%
    20:00 +10°C° 0 mm 1 m/s 718 mmHg 76%
    21:00 +10°C° 0 mm 1 m/s 718 mmHg 76%
    22:00 +10°C° 0 mm 1 m/s 718 mmHg 77%
    23:00 +9°C° 0 mm 1 m/s 718 mmHg 77%
    Voir plus